Location: Washington
(38.8950°N, 77.0370°W)
Time: 23:12:31
(UTC-04:00)

Amateur Radio Satellites - All Passes

Search period start: 21 October 2014 22:42
Search period end: 22 October 2014 22:42
Location: Washington, 38.8950°N, 77.0370°W

Satellite Date Start Highest point End Downlink Frequencies (MHz)
Time Altitude Azimuth
HO-68 21 Oct 22:54:11 22:59:01 19° 268° (W) 23:03:54 435.675 MHz FM
FUNcube-1 21 Oct 22:55:42 23:00:17 64° 259° (W) 23:04:49 145.950 - 145.970 MHz USB
SO-50 21 Oct 23:00:53 23:05:44 71° 57° (ENE) 23:10:36 436.795 FM
UOSAT-12 21 Oct 23:05:31 23:06:48 11° 38° (NE) 23:08:05 437.025 FM, 437.400 FM
Oscar 11 21 Oct 23:08:33 23:11:37 19° 266° (W) 23:14:43 145.825 FM, Beacon 2401.500 USB
RS-15 21 Oct 23:24:44 23:35:47 87° 119° (ESE) 23:46:45 29.354 - 29.394 USB, Beacon 29.352 USB
MaSat-1 21 Oct 23:35:30 23:36:22 11° 104° (ESE) 23:37:13 437.345 MHz
KITSAT 1 21 Oct 23:36:43 23:44:10 43° 251° (WSW) 23:51:36 435.175 FM
ZACube-1 21 Oct 23:48:03 23:51:13 18° 267° (W) 23:54:24 437.345 MHz
UOSAT-12 22 Oct 00:43:08 00:47:51 68° 57° (ENE) 00:52:28 437.025 FM, 437.400 FM
SO-50 22 Oct 00:43:31 00:45:42 13° 253° (WSW) 00:47:54 436.795 FM
MaSat-1 22 Oct 01:07:29 01:11:44 62° 296° (WNW) 01:15:36 437.345 MHz
RS-15 22 Oct 01:40:20 01:49:35 30° 324° (NW) 01:58:55 29.354 - 29.394 USB, Beacon 29.352 USB
Oscar 16 22 Oct 01:57:19 02:01:41 28° 96° (E) 02:06:01 437.025 USB, Beacon 2401.1428
Uribyol 2 22 Oct 02:12:00 02:15:05 16° 92° (E) 02:18:09 436.500 FM
ITAMSAT 1 22 Oct 02:17:01 02:20:17 17° 92° (E) 02:23:33 435.822 SSB
AO-Echo 22 Oct 02:18:51 02:23:07 24° 94° (E) 02:27:22 ?
UOSAT-12 22 Oct 02:25:25 02:27:22 13° 253° (WSW) 02:29:18 437.025 FM, 437.400 FM
JAS-1B 22 Oct 02:46:30 02:53:03 66° 103° (ESE) 03:00:53 435.800 - 435.900 CW/SSB
Oscar 19 22 Oct 02:50:47 02:55:56 89° 284° (WNW) 03:01:02 437.125 CW, 437.150 USB
AO-27 22 Oct 03:00:25 03:05:26 45° 99° (E) 03:10:25 436.795 MHz FM
Sapphire 22 Oct 03:33:35 03:35:49 13° 102° (ESE) 03:38:03 437.095 MHz 1200 baud AX-25 AFSK
Oscar 16 22 Oct 03:36:29 03:41:00 32° 291° (WNW) 03:45:31 437.025 USB, Beacon 2401.1428
Uribyol 2 22 Oct 03:49:47 03:54:55 58° 287° (WNW) 03:59:59 436.500 FM
PCSat 22 Oct 03:54:18 03:58:27 23° 106° (ESE) 04:02:36 145.825 MHz
ITAMSAT 1 22 Oct 03:55:00 04:00:06 56° 288° (WNW) 04:05:11 435.822 SSB
Gurwin Techsat 1B 22 Oct 03:55:48 04:01:09 79° 103° (ESE) 04:06:27 435.225 FM
AO-Echo 22 Oct 03:57:02 04:01:57 40° 290° (WNW) 04:06:53 ?
RS-15 22 Oct 04:00:45 04:07:10 17° 360° (N) 04:13:39 29.354 - 29.394 USB, Beacon 29.352 USB
TMSAT-1 22 Oct 04:09:09 04:14:29 78° 103° (ESE) 04:19:47 436.925 FM
Oscar 19 22 Oct 04:33:22 04:34:28 11° 301° (WNW) 04:35:34 437.125 CW, 437.150 USB
AO-7 22 Oct 04:33:40 04:40:54 32° 97° (E) 04:48:05 29.400 - 29.500 MHz
OPAL 22 Oct 04:35:34 04:40:00 30° 66° (ENE) 04:44:24 ?
JAS-1B 22 Oct 04:38:35 04:43:19 22° 296° (WNW) 04:48:37 435.800 - 435.900 CW/SSB
AO-27 22 Oct 04:40:42 04:44:36 22° 295° (WNW) 04:48:30 436.795 MHz FM
Sapphire 22 Oct 05:13:05 05:18:29 78° 299° (WNW) 05:23:56 437.095 MHz 1200 baud AX-25 AFSK
PCSat 22 Oct 05:36:19 05:41:31 47° 303° (WNW) 05:46:45 145.825 MHz
Gurwin Techsat 1B 22 Oct 05:37:58 05:40:24 13° 299° (WNW) 05:42:50 435.225 FM
Uosat F 22 Oct 05:38:52 05:43:57 82° 103° (ESE) 05:48:59 435.120 FM
TMSAT-1 22 Oct 05:51:13 05:53:42 14° 299° (WNW) 05:56:11 436.925 FM
JAS-2 22 Oct 06:10:29 06:17:58 49° 98° (E) 06:25:28 435.800 - 435.900 CW/SSB, 435.910 FM
OPAL 22 Oct 06:14:11 06:18:46 32° 261° (W) 06:23:20 ?
STRAND 1 22 Oct 06:15:10 06:19:21 26° 66° (ENE) 06:23:33 ?
RS-15 22 Oct 06:15:27 06:24:50 30° 35° (NE) 06:34:28 29.354 - 29.394 USB, Beacon 29.352 USB
AO-7 22 Oct 06:25:54 06:33:55 55° 294° (WNW) 06:41:57 29.400 - 29.500 MHz
Sapphire 22 Oct 07:00:17 07:02:49 13° 318° (NW) 07:05:22 437.095 MHz 1200 baud AX-25 AFSK
Hamsat 22 Oct 07:15:35 07:19:43 62° 285° (WNW) 07:23:52 145.90 MHz
Uosat F 22 Oct 07:20:09 07:22:00 12° 300° (WNW) 07:23:51 435.120 FM
SO-67 22 Oct 07:28:18 07:30:47 18° 94° (E) 07:33:15 435.3500 MHz FM
STRAND 1 22 Oct 07:53:40 07:58:21 36° 262° (W) 08:03:04 ?
JAS-2 22 Oct 07:55:51 08:02:41 36° 294° (WNW) 08:09:37 435.800 - 435.900 CW/SSB, 435.910 FM
Saudisat 1A 22 Oct 08:15:16 08:19:23 42° 116° (ESE) 08:23:33 436.775 MHz
AO-7 22 Oct 08:22:32 08:24:52 11° 315° (NW) 08:27:11 29.400 - 29.500 MHz
RS-15 22 Oct 08:27:34 08:38:49 90° 60° (ENE) 08:50:34 29.354 - 29.394 USB, Beacon 29.352 USB
HO-68 22 Oct 08:35:37 08:38:46 13° 89° (E) 08:41:54 435.675 MHz FM
SO-67 22 Oct 09:01:00 09:03:41 21° 289° (WNW) 09:06:21 435.3500 MHz FM
PANSAT 22 Oct 09:04:12 09:05:38 12° 166° (SSE) 09:07:04 not established
Saudisat 1A 22 Oct 09:55:45 09:59:07 21° 313° (NW) 10:02:31 436.775 MHz
UKube-1 22 Oct 10:12:03 10:15:50 28° 97° (E) 10:19:36 145.840 MHz, 145.915 MHz
HO-68 22 Oct 10:20:08 10:27:23 85° 106° (ESE) 10:34:34 435.675 MHz FM
RS-15 22 Oct 10:42:02 10:49:43 22° 259° (W) 10:57:40 29.354 - 29.394 USB, Beacon 29.352 USB
PANSAT 22 Oct 10:42:33 10:45:06 17° 179° (S) 10:47:40 not established
FUNcube-1 22 Oct 10:46:48 10:50:22 25° 95° (E) 10:53:52 145.950 - 145.970 MHz USB
Oscar 11 22 Oct 10:55:49 11:00:09 85° 103° (ESE) 11:04:27 145.825 FM, Beacon 2401.500 USB
MaSat-1 22 Oct 10:55:53 10:58:09 27° 251° (WSW) 11:00:16 437.345 MHz
ZACube-1 22 Oct 11:37:04 11:41:22 80° 284° (WNW) 11:45:32 437.345 MHz
UKube-1 22 Oct 11:48:22 11:51:53 24° 292° (WNW) 11:55:24 145.840 MHz, 145.915 MHz
KITSAT 1 22 Oct 12:08:40 12:15:39 34° 107° (ESE) 12:22:38 435.175 FM
HO-68 22 Oct 12:09:33 12:14:11 19° 304° (WNW) 12:18:49 435.675 MHz FM
Sapphire 22 Oct 12:21:42 12:23:14 11° 40° (NE) 12:24:45 437.095 MHz 1200 baud AX-25 AFSK
PANSAT 22 Oct 12:22:42 12:24:36 13° 192° (SSW) 12:26:30 not established
FUNcube-1 22 Oct 12:23:11 12:26:39 24° 291° (WNW) 12:30:03 145.950 - 145.970 MHz USB
Oscar 19 22 Oct 12:30:13 12:32:50 14° 62° (ENE) 12:35:27 437.125 CW, 437.150 USB
PCSat 22 Oct 12:43:06 12:46:38 17° 45° (NE) 12:50:08 145.825 MHz
ISS 22 Oct 13:12:46 13:15:28 23° 132° (SE) 13:18:11 145.800 FM
Oscar 16 22 Oct 13:13:00 13:17:42 37° 69° (ENE) 13:22:24 437.025 USB, Beacon 2401.1428
SO-50 22 Oct 13:15:14 13:19:05 29° 113° (ESE) 13:23:02 436.795 FM
Uribyol 2 22 Oct 13:28:28 13:32:26 23° 65° (ENE) 13:36:25 436.500 FM
AO-Echo 22 Oct 13:30:56 13:34:54 26° 67° (ENE) 13:38:58 ?
JAS-1B 22 Oct 13:32:11 13:37:58 46° 70° (ENE) 13:43:21 435.800 - 435.900 CW/SSB
ITAMSAT 1 22 Oct 13:33:40 13:37:43 24° 65° (ENE) 13:41:48 435.822 SSB
Gurwin Techsat 1B 22 Oct 13:39:07 13:41:43 14° 61° (ENE) 13:44:19 435.225 FM
TMSAT-1 22 Oct 13:52:17 13:54:46 14° 61° (ENE) 13:57:15 436.925 FM
Sapphire 22 Oct 14:02:21 14:07:45 64° 60° (ENE) 14:13:07 437.095 MHz 1200 baud AX-25 AFSK
KITSAT 1 22 Oct 14:02:49 14:10:41 54° 306° (NW) 14:18:35 435.175 FM
Oscar 19 22 Oct 14:06:24 14:11:33 71° 258° (WSW) 14:16:42 437.125 CW, 437.150 USB
AO-27 22 Oct 14:17:16 14:22:22 61° 73° (ENE) 14:27:32 436.795 MHz FM
PCSat 22 Oct 14:25:13 14:30:39 77° 244° (WSW) 14:36:03 145.825 MHz
ISS 22 Oct 14:48:55 14:52:02 36° 328° (NNW) 14:55:10 145.800 FM
Oscar 16 22 Oct 14:52:53 14:57:05 25° 265° (W) 15:01:19 437.025 USB, Beacon 2401.1428
UOSAT-12 22 Oct 14:53:39 14:57:31 27° 112° (ESE) 15:01:27 437.025 FM, 437.400 FM
SO-50 22 Oct 14:55:36 14:59:34 30° 310° (NW) 15:03:39 436.795 FM
Oscar 10/S400 22 Oct 14:56:24 15:14:23 48° 157° (SSE) 15:43:26 145.825 - 145.975 CW/USB, Beacon 145.810 USB
Uribyol 2 22 Oct 15:06:38 15:11:35 43° 261° (W) 15:16:34 436.500 FM
AO-Echo 22 Oct 15:09:09 15:13:29 33° 264° (W) 15:17:59 ?
ITAMSAT 1 22 Oct 15:12:03 15:16:56 41° 261° (W) 15:21:52 435.822 SSB
Gurwin Techsat 1B 22 Oct 15:15:42 15:21:00 76° 257° (WSW) 15:26:20 435.225 FM
Uosat F 22 Oct 15:16:07 15:17:48 12° 60° (ENE) 15:19:29 435.120 FM
JAS-1B 22 Oct 15:24:18 15:28:52 22° 265° (W) 15:33:12 435.800 - 435.900 CW/SSB
TMSAT-1 22 Oct 15:28:41 15:33:59 78° 257° (WSW) 15:39:19 436.925 FM
AO-7 22 Oct 15:31:21 15:38:51 40° 62° (ENE) 15:46:22 29.400 - 29.500 MHz
Sapphire 22 Oct 15:47:20 15:50:35 16° 256° (WSW) 15:53:50 437.095 MHz 1200 baud AX-25 AFSK
AO-27 22 Oct 15:59:21 16:02:16 15° 269° (W) 16:05:13 436.795 MHz FM
KITSAT 1 22 Oct 16:03:48 16:08:09 15° 330° (NNW) 16:12:32 435.175 FM
JAS-2 22 Oct 16:24:12 16:27:45 16° 57° (ENE) 16:31:31 435.800 - 435.900 CW/SSB, 435.910 FM
ISS 22 Oct 16:28:15 16:29:30 12° 347° (NNW) 16:30:44 145.800 FM
UOSAT-12 22 Oct 16:33:18 16:37:31 34° 309° (NW) 16:41:49 437.025 FM, 437.400 FM
Saudisat 1A 22 Oct 16:43:11 16:46:55 26° 49° (NE) 16:50:37 436.775 MHz
Uosat F 22 Oct 16:50:50 16:55:51 83° 256° (WSW) 17:00:55 435.120 FM
AO-7 22 Oct 17:23:42 17:31:30 45° 260° (W) 17:39:21 29.400 - 29.500 MHz
JAS-2 22 Oct 18:06:05 18:11:48 79° 257° (WSW) 18:18:21 435.800 - 435.900 CW/SSB, 435.910 FM
ISS 22 Oct 18:06:59 18:07:26 10° 8° (N) 18:07:54 145.800 FM
Hamsat 22 Oct 18:07:16 18:11:29 78° 76° (ENE) 18:15:42 145.90 MHz
Saudisat 1A 22 Oct 18:22:32 18:26:30 33° 246° (WSW) 18:30:27 436.775 MHz
OPAL 22 Oct 18:24:39 18:29:37 74° 105° (ESE) 18:34:33 ?
SO-67 22 Oct 19:31:23 19:34:49 85° 258° (WSW) 19:38:16 435.3500 MHz FM
ISS 22 Oct 19:42:12 19:45:04 25° 28° (NNE) 19:47:55 145.800 FM
KITSAT 1 22 Oct 20:02:59 20:07:56 17° 33° (NNE) 20:12:52 435.175 FM
STRAND 1 22 Oct 20:04:57 20:10:08 85° 104° (ESE) 20:15:17 ?
OPAL 22 Oct 20:05:36 20:07:52 13° 301° (WNW) 20:10:07 ?
RS-15 22 Oct 20:46:12 20:49:43 12° 96° (E) 20:53:12 29.354 - 29.394 USB, Beacon 29.352 USB
HO-68 22 Oct 20:46:58 20:53:54 56° 69° (ENE) 21:00:53 435.675 MHz FM
UKube-1 22 Oct 21:06:44 21:10:05 22° 67° (ENE) 21:13:26 145.840 MHz, 145.915 MHz
ISS 22 Oct 21:18:42 21:21:50 39° 225° (SW) 21:24:57 145.800 FM
FUNcube-1 22 Oct 21:42:08 21:45:31 21° 67° (ENE) 21:48:52 145.950 - 145.970 MHz USB
STRAND 1 22 Oct 21:46:46 21:48:34 12° 300° (WNW) 21:50:21 ?
SO-50 22 Oct 21:47:39 21:51:32 24° 47° (NE) 21:55:26 436.795 FM
Oscar 11 22 Oct 21:49:24 21:53:38 56° 74° (ENE) 21:57:53 145.825 FM, Beacon 2401.500 USB
KITSAT 1 22 Oct 21:57:07 22:05:08 62° 56° (ENE) 22:13:06 435.175 FM
ZACube-1 22 Oct 22:31:37 22:36:12 70° 75° (ENE) 22:40:45 437.345 MHz
